Address 0xe3fcca91d6a6f976a66d4f3e54e6b2c53f906a23 1

 
 
Txn Hash Method
Block
From
To
Value [Txn Fee]
0x8fa4b6d769bdfd8b292716f6363fef5b39ba3235bff3acfb9aaf49e63a26a2b3Approve312925752022-07-29 22:55:4963 days 3 hrs ago0xe3fcca91d6a6f976a66d4f3e54e6b2c53f906a23OUT 0x9fb83c0635de2e815fd1c21b3a292277540c2e8d0 MATIC0.0018085068 38.800000013
0x9f08b6f99c765c9c657e8b99c8b762920f1a1f89fefac67254a56fbe289c488bTransfer312762382022-07-29 12:44:3163 days 13 hrs ago0xe3fcca91d6a6f976a66d4f3e54e6b2c53f906a23OUT Mapper: USDT Stablecoin0 MATIC0.00083891576 31.963566284
0xc20b5a9b031a7e9a335fc615c9a0fd3802349cd2a67542dfcb76d808ad5a46f7Transfer310477722022-07-23 12:15:1669 days 13 hrs ago0xe3fcca91d6a6f976a66d4f3e54e6b2c53f906a23OUT Mapper: USDT Stablecoin0 MATIC0.00455832528679.543595555
0xa8eede6a608e934cc861e0c7edc92396eef2443bf025dab5a766931a89c80eedTransfer Token310246952022-07-22 20:56:4770 days 5 hrs ago0xe3fcca91d6a6f976a66d4f3e54e6b2c53f906a23OUT 0xe6cdbf538a4996b97fd98675bdf476aabe8b5e1e0 MATIC0.00852462981532.916043323
0x1ffa18c78ef5bcbf0505d7b69b2c99e04c76939cd583962adcfa6ebf3b08aadbTransfer310238302022-07-22 20:22:3670 days 5 hrs ago0xe3fcca91d6a6f976a66d4f3e54e6b2c53f906a23OUT 0xe6cdbf538a4996b97fd98675bdf476aabe8b5e1e0 MATIC0.00063154129530.007663949
0xca4df52206c3e42fa58f16e3dacfca126001dfca5f3eb0cfd5095dad96dba113Transfer Token310170412022-07-22 15:54:4370 days 10 hrs ago0xe3fcca91d6a6f976a66d4f3e54e6b2c53f906a23OUT 0xe6cdbf538a4996b97fd98675bdf476aabe8b5e1e0 MATIC0.00146455836542.366234654
0x8748d8968d8adb578929a66cf023a4cd49ab56710b595e41ec76f077b6bdd992Transfer310165802022-07-22 15:36:4570 days 10 hrs ago0xe3fcca91d6a6f976a66d4f3e54e6b2c53f906a23OUT 0xe6cdbf538a4996b97fd98675bdf476aabe8b5e1e0 MATIC0.003297102338156.661709513
0x8582e48ee0fe689470fb791d11b045af9702712c2cc43377632deaf710cff93bTransfer300550242022-06-27 9:58:1895 days 16 hrs ago0xe3fcca91d6a6f976a66d4f3e54e6b2c53f906a23OUT0x29713a7964984c3ec6ddc223e15043d0f40ad9b55 MATIC0.000920769693 43.846175859
0x047fc8a17e11de2690da4f83d101ef0b083afd9aad968eaf7cea96a2d2f82b90Transfer300398222022-06-27 0:43:3196 days 1 hr ago0xe3fcca91d6a6f976a66d4f3e54e6b2c53f906a23OUT 0x9fb83c0635de2e815fd1c21b3a292277540c2e8d0 MATIC0.00155058962 30.070000004
0x1c86b98720733a1f0730a0eb8e29e69f32b44e0db27a3c51ab8c8b88a0ae936fTransfer Token299995462022-06-26 0:14:3197 days 1 hr ago0xe3fcca91d6a6f976a66d4f3e54e6b2c53f906a23OUT 0xe6cdbf538a4996b97fd98675bdf476aabe8b5e1e0 MATIC0.009235375645 35.013119985
0xa20c8ad6721b2c9cfe7e97e2f41540a7cdac785ee194c616d1e18f50ea00842aTransfer Token299994662022-06-26 0:11:4797 days 2 hrs ago0xe3fcca91d6a6f976a66d4f3e54e6b2c53f906a23OUT 0xe6cdbf538a4996b97fd98675bdf476aabe8b5e1e0 MATIC0.007913070007 30.000000027
0x49987c3b988b5defd5ff512ab4052d05a01725e9c24a169c42f382883f23df06Transfer Token299991412022-06-25 23:59:4597 days 2 hrs ago0xe3fcca91d6a6f976a66d4f3e54e6b2c53f906a23OUT 0xe6cdbf538a4996b97fd98675bdf476aabe8b5e1e0 MATIC0.008059828462 30.555000027
0x38418d95e79c5d38b1f341e78c460f55b1030a6388c21547680028acc62ae446Transfer Token299990032022-06-25 23:53:4597 days 2 hrs ago0xe3fcca91d6a6f976a66d4f3e54e6b2c53f906a23OUT 0xe6cdbf538a4996b97fd98675bdf476aabe8b5e1e0 MATIC0.008426430007 30.000000026
0x95eb4df92ef245b7d723f99887dde3295e2f09f70eb1f2f3b10a4c312a64e817Transfer298722212022-06-22 15:39:13100 days 10 hrs ago0xe3fcca91d6a6f976a66d4f3e54e6b2c53f906a23OUT0x6713896f0715690d43a5a6526197358a061006525 MATIC0.000630000001 30.000000056
0x941904afee7d19b2ae5405db72e3ce44a723a779db4876cfffd5db803366a8f4Swap298660422022-06-22 11:45:11100 days 14 hrs ago0xe3fcca91d6a6f976a66d4f3e54e6b2c53f906a23OUT Metamask: Swap Router4 MATIC0.007461394276 37.647682913
0x87518e5e962807668477a1f218f8dae14fd9a24a353d268cc95406416eb2c9fdTransfer Token298024132022-06-20 20:05:57102 days 6 hrs ago0xe3fcca91d6a6f976a66d4f3e54e6b2c53f906a23OUT 0xe6cdbf538a4996b97fd98675bdf476aabe8b5e1e0 MATIC0.009550822676 35.411714434
0x22f91bf15e3d170272b9881f11e3c1eb420763bf939d1262f9a970194b30fe63Swap298023582022-06-20 20:03:27102 days 6 hrs ago0xe3fcca91d6a6f976a66d4f3e54e6b2c53f906a23OUT Metamask: Swap Router3 MATIC0.02531336376 48.500002416
0xd955a599320c046be3939d2411bb7b894a7b1fed6b879cc5a688412c2471148eTransfer Token298022942022-06-20 19:57:35102 days 6 hrs ago0xe3fcca91d6a6f976a66d4f3e54e6b2c53f906a23OUT 0xe6cdbf538a4996b97fd98675bdf476aabe8b5e1e0 MATIC0.001535804196 34.526419591
0xf8b697de186ba3707388accfc3de2cd15f1ccef25339ad7e3e56da894b3f423fTransfer Token298021682022-06-20 19:53:15102 days 6 hrs ago0xe3fcca91d6a6f976a66d4f3e54e6b2c53f906a23OUT 0xe6cdbf538a4996b97fd98675bdf476aabe8b5e1e0 MATIC0.001590418324 35.7542
0xdbdb32d09e2cb9eb36749ddebc0c4f7000941b164b8bdf6b70aa1300436a1fcbSwap298021212022-06-20 19:51:41102 days 6 hrs ago0xe3fcca91d6a6f976a66d4f3e54e6b2c53f906a23OUT Metamask: Swap Router5 MATIC0.013773072671 36.217859998
0x134a53f28b87ab37dace147107b6d89a88bd6639ad49d34b04d39efcb2a618d1Transfer Token298020552022-06-20 19:49:25102 days 6 hrs ago0xe3fcca91d6a6f976a66d4f3e54e6b2c53f906a23OUT 0xe6cdbf538a4996b97fd98675bdf476aabe8b5e1e0 MATIC0.008745791697 31.137000003
0x2d8dea9599f0af8f7e28132faaafc7accf1145bf3f6c8e4e6ea07d4a69f6275bApprove298020502022-06-20 19:49:15102 days 6 hrs ago0xe3fcca91d6a6f976a66d4f3e54e6b2c53f906a23OUT Mapper: USDT Stablecoin0 MATIC0.001621365864 31.137000003
0xa8b608524426013de2ac57ee5122515b36162a53214997a48a60fc3ccd5ac398Approve297276632022-06-18 20:39:29104 days 5 hrs ago0xe3fcca91d6a6f976a66d4f3e54e6b2c53f906a23OUT Wormhole: BUSD Token0 MATIC0.028921226363 467.867449058
0xc77167d89b82bc50d6b48a396a875deed7b325215fe4b24f28cf3bddd6c684c8Swap297276342022-06-18 20:38:31104 days 5 hrs ago0xe3fcca91d6a6f976a66d4f3e54e6b2c53f906a23OUT Metamask: Swap Router0 MATIC0.238772311258 487.231764458
0x419b711084b074408b262223b2c2c3f3e88e8d5ffc5ae8a164d3c55f3b7182cfApprove297276342022-06-18 20:38:31104 days 5 hrs ago0xe3fcca91d6a6f976a66d4f3e54e6b2c53f906a23OUT Mapper: USDT Stablecoin0 MATIC0.025371132438 487.231764458
[ Download CSV Export 
Latest 1 internal transaction
Parent Txn Hash Block From To Value
0xc77167d89b82bc50d6b48a396a875deed7b325215fe4b24f28cf3bddd6c684c8297276342022-06-18 20:38:31104 days 5 hrs ago 0xc590175e458b83680867afd273527ff58f74c02b0xe3fcca91d6a6f976a66d4f3e54e6b2c53f906a2330.565082189200574919 MATIC
[ Download CSV Export 
Loading

Contract Name:
0 MATIC

Compiler Version
0

Optimization Enabled:
0 MATIC

Other Settings:
-NA-
Block Transaction Gas Used Reward
Age Block Fee Address BC Fee Address Voting Power Jailed Incoming
Block Uncle Number Difficulty Gas Used Reward
Loading
Loading
Make sure to use the "Vote Down" button for any spammy posts, and the "Vote Up" for interesting conversations.